Regional Weather Roundup
Issued by NWS

Home | Current Version | Previous Version | Graphics & Text | Print | Product List | Glossary Off
Versions: 1 2 3 4 5 6 7 8 9 10 11 12 13 14 15 16 17 18 19 20 21 22 23 24 25 26 27 28 29 30 31 32 33 34 35 36 37 38 39 40 41 42 43 44 45 46 47 48 49 50

000
ASUS43 KTOP 261208
RWRKS

WEATHER ROUNDUP FOR KANSAS
NATIONAL WEATHER SERVICE GOODLAND KS
700 AM CDT SUN MAR 26 2017

NOTE:  "FAIR" INDICATES FEW OR NO CLOUDS BELOW 12,000 FEET WITH NO
SIGNIFICANT WEATHER AND/OR OBSTRUCTIONS TO VISIBILITY.

KSZ001>006-013>018-027>032-041>047-261300-
NORTHWEST KANSAS

CITY           SKY/WX    TMP DP  RH WIND       PRES   REMARKS
GOODLAND       FOG       38  38 100 SE6       29.81R VSB 1/2
6HR MIN TEMP:  36; 6HR MAX TEMP:  40;

HAYS             N/A     40  40 100 SW5       29.88R FOG
HILL CITY      CLOUDY    40  40 100 E3        29.88R FOG
6HR MIN TEMP:  38; 6HR MAX TEMP:  41;

RUSSELL        CLOUDY    40  39  97 SE5       29.87R FOG
6HR MIN TEMP:  40; 6HR MAX TEMP:  41;

$$

KSZ061>065-074>080-084>089-261300-
SOUTHWEST KANSAS

CITY           SKY/WX    TMP DP  RH WIND       PRES   REMARKS
DODGE CITY     FOG       37  37 100 E9        29.82F VSB 1/4
6HR MIN TEMP:  33; 6HR MAX TEMP:  40;

ELKHART          N/A     37  29  73 SE10        N/A  WCI  30
GARDEN CITY    FOG       37  36  96 E17       29.77F VSB 1/4 WCI  27
6HR MIN TEMP:  37; 6HR MAX TEMP:  40;

GREAT BEND     CLOUDY    41  40  96 SE3       29.88S FOG
LIBERAL        CLOUDY    41  36  81 SE15      29.75S
PRATT          CLOUDY    38  37  97 E7        29.87S FOG
6HR MIN TEMP:  37; 6HR MAX TEMP:  38;

$$

KSZ066>073-081>083-090>101-261300-
SOUTHEAST KANSAS

CITY           SKY/WX    TMP DP  RH WIND       PRES   REMARKS
CHANUTE        CLOUDY    46  44  93 CALM      29.91R
6HR MIN TEMP:  46; 6HR MAX TEMP:  47;

COFFEYVILLE    CLOUDY    48  44  86 CALM      29.91S
6HR MIN TEMP:  47; 6HR MAX TEMP:  48;

HUTCHINSON     CLOUDY    42  41  96 S3        29.89F FOG
6HR MIN TEMP:  42; 6HR MAX TEMP:  43;

MEDICINE LODGE   N/A     42  40  92 E3        29.88R
NEWTON         CLOUDY    42  41  96 W3        29.91R
PARSONS        CLOUDY    47  44  90 CALM      29.92R
6HR MIN TEMP:  46; 6HR MAX TEMP:  47;

WICHITA INTL   CLOUDY    43  42  97 CALM      29.89S FOG
6HR MIN TEMP:  43; 6HR MAX TEMP:  44;

WICHITA JABRA  CLOUDY    43  43 100 CALM      29.89F FOG
6HR MIN TEMP:  43; 6HR MAX TEMP:  43;

WICHITA MCCONL CLOUDY    43  43 100 CALM      29.89S
WINFIELD       CLOUDY    45  42  89 CALM      29.91S
6HR MIN TEMP:  45; 6HR MAX TEMP:  46;

$$

KSZ007>012-019>026-033>040-048>060-102>105-261300-
NORTHEAST KANSAS

CITY           SKY/WX    TMP DP  RH WIND       PRES   REMARKS
CONCORDIA      CLOUDY    40  40 100 CALM      29.89R
6HR MIN TEMP:  40; 6HR MAX TEMP:  40;

EMPORIA        FOG       43  43 100 CALM      29.89S VSB 1
6HR MIN TEMP:  43; 6HR MAX TEMP:  44;

LAWRENCE       CLOUDY    43  42  97 W5        29.91S
6HR MIN TEMP:  43; 6HR MAX TEMP:  44;

MANHATTAN      CLOUDY    43  40  89 CALM      29.90R
6HR MIN TEMP:  43; 6HR MAX TEMP:  44;

MARYSVILLE     CLOUDY    41  39  93 N3        29.89F FOG
OLATHE IND     CLOUDY    43  40  89 NW5       29.90F
6HR MIN TEMP:  43; 6HR MAX TEMP:  44;

OLATHE EXE     CLOUDY    42  42 100 W3        29.90R
6HR MIN TEMP:  42; 6HR MAX TEMP:  44; 6HR PCP: TRACE;

SALINA         CLOUDY    44  42  93 W3        29.91R FOG
6HR MIN TEMP:  43; 6HR MAX TEMP:  44;

TOPEKA BILLARD CLOUDY    44  43  96 NW3       29.90S
6HR MIN TEMP:  44; 6HR MAX TEMP:  44;

TOPEKA FORBES  CLOUDY    45  43  93 N6        29.89F
6HR MIN TEMP:  45; 6HR MAX TEMP:  45;

$$




USA.gov is the U.S. government's official web portal to all federal, state and local government web resources and services.